DW1902 Weather Reports


Display with metric or nautical units.
time (UTC)temp
F
wind
direction
speed
MPH
gust
MPH
rain 1hr
in
rain 24hr
in
rain mn
in
humidity
%
barometer
mb
20180419230205 38 121 0.0 3.0 0.05 0.13 0.13 99 1004.1
20180419225705 38 121 0.0 3.0 0.05 0.13 0.13 99 1004.0
20180419225205 38 121 0.0 2.0 0.04 0.13 0.13 99 1004.2
20180419224705 38 121 0.0 2.0 0.05 0.13 0.13 99 1004.2
20180419224205 38 121 0.0 4.0 0.05 0.12 0.12 99 1003.9
20180419223705 38 121 0.0 4.0 0.05 0.12 0.12 99 1003.7
20180419223205 39 121 0.0 4.0 0.06 0.12 0.12 99 1003.7
20180419222705 39 138 0.0 3.0 0.06 0.12 0.12 99 1003.9
20180419222205 39 143 0.0 3.0 0.07 0.12 0.12 99 1004.0
20180419221705 39 144 0.0 2.0 0.07 0.12 0.12 99 1004.1
20180419221205 39 144 0.0 2.0 0.07 0.11 0.11 99 1004.1
20180419220705 39 145 0.0 1.0 0.06 0.09 0.09 99 1004.5
20180419220206 39 145 0.0 1.0 0.05 0.09 0.09 98 1004.6
20180419215705 39 145 0.0 2.0 0.05 0.09 0.09 98 1005.0
20180419215206 39 145 0.0 2.0 0.05 0.08 0.08 98 1005.3
20180419214713 39 145 0.0 2.0 0.04 0.08 0.08 98 1004.7
20180419214205 40 144 0.0 0.0 0.05 0.07 0.07 98 1004.6
20180419213705 40 144 0.0 4.0 0.04 0.06 0.06 98 1004.8
20180419213205 40 144 0.0 4.0 0.04 0.06 0.06 98 1004.7
20180419212705 40 144 1.0 3.0 0.03 0.06 0.06 98 1004.8
20180419212206 40 144 0.0 3.0 0.02 0.05 0.05 98 1005.5
20180419211705 40 142 0.0 3.0 0.02 0.05 0.05 98 1005.1
20180419211206 40 142 0.0 1.0 0.02 0.04 0.04 98 1005.0
20180419210705 40 142 0.0 1.0 0.02 0.04 0.04 98 1004.9
20180419210205 40 142 0.0 2.0 0.02 0.04 0.04 97 1004.8
20180419205705 40 142 0.0 2.0 0.02 0.04 0.04 97 1005.2
20180419205213 40 142 0.0 3.0 0.02 0.04 0.04 97 1005.2
20180419204705 40 142 0.0 4.0 0.01 0.03 0.03 97 1005.2
20180419204205 40 142 1.0 4.0 0.00 0.02 0.02 97 1005.1
20180419203704 40 142 1.0 7.0 0.00 0.02 0.02 97 1005.3
20180419203205 40 142 1.0 7.0 0.00 0.02 0.02 97 1005.6
20180419202705 40 142 1.0 7.0 0.00 0.02 0.02 97 1005.5
20180419202205 41 140 1.0 5.0 0.00 0.02 0.02 97 1005.2
20180419201705 41 142 1.0 4.0 0.00 0.02 0.02 97 1005.3
20180419201205 41 148 1.0 4.0 0.00 0.02 0.02 97 1005.7
20180419200707 41 146 1.0 6.0 0.00 0.02 0.02 97 1006.0
20180419200205 41 146 1.0 6.0 0.00 0.02 0.02 97 1005.8
20180419195705 41 144 1.0 6.0 0.00 0.02 0.02 97 1005.7
20180419195205 41 144 1.0 3.0 0.00 0.02 0.02 97 1006.0
20180419194705 41 150 0.0 4.0 0.00 0.02 0.02 96 1005.8
20180419194206 41 150 0.0 4.0 0.00 0.02 0.02 97 1005.7
20180419193705 41 150 0.0 4.0 0.00 0.02 0.02 96 1005.7
20180419193205 42 150 0.0 7.0 0.00 0.02 0.02 96 1005.4
20180419192705 41 150 1.0 7.0 0.00 0.02 0.02 96 1005.5
20180419192207 41 150 2.0 9.0 0.01 0.02 0.02 96 1005.8
20180419191705 42 177 2.0 9.0 0.01 0.02 0.02 96 1006.4
20180419191207 42 142 2.0 9.0 0.01 0.02 0.02 96 1006.3
20180419190705 42 163 3.0 9.0 0.02 0.02 0.02 96 1006.5
20180419190205 42 128 2.0 8.0 0.02 0.02 0.02 95 1006.5
20180419185705 42 157 1.0 11.0 0.02 0.02 0.02 95 1006.2
20180419185206 42 157 2.0 14.0 0.02 0.02 0.02 95 1006.3
20180419184706 42 165 4.0 14.0 0.02 0.02 0.02 95 1006.5
20180419184206 43 121 3.0 12.0 0.02 0.02 0.02 95 1006.7
20180419183706 44 140 3.0 12.0 0.02 0.02 0.02 95 1006.6
20180419183206 44 130 3.0 7.0 0.02 0.02 0.02 95 1006.2
20180419182706 45 161 1.0 6.0 0.02 0.02 0.02 95 1006.1
20180419182206 44 171 1.0 6.0 0.02 0.02 0.02 95 1006.1
20180419181706 44 180 1.0 5.0 0.02 0.02 0.02 94 1005.9
20180419181206 44 184 1.0 6.0 0.01 0.01 0.01 93 1005.8
20180419180705 44 184 2.0 6.0 0.01 0.01 0.01 92 1006.5
20180419180206 44 180 2.0 9.0 0.01 0.01 0.01 91 1006.7
20180419175705 45 175 2.0 10.0 0.01 0.01 0.01 91 1006.7
20180419175206 45 181 3.0 10.0 0.01 0.01 0.01 91 1006.4
20180419174707 46 173 2.0 9.0 0.01 0.01 0.01 90 1006.3
20180419174205 46 163 2.0 8.0 0.01 0.01 0.01 88 1006.1
20180419173708 47 143 2.0 8.0 0.00 0.00 0.00 87 1005.8
20180419173205 47 189 2.0 8.0 0.00 0.00 0.00 84 1006.0
20180419172707 47 171 3.0 13.0 0.00 0.00 0.00 81 1006.3
20180419172208 47 206 4.0 13.0 0.00 0.00 0.00 78 1006.5
20180419171705 47 225 4.0 13.0 0.00 0.00 0.00 77 1006.7
20180419171206 47 219 3.0 7.0 0.00 0.00 0.00 76 1007.2
20180419170707 48 218 3.0 7.0 0.00 0.00 0.00 77 1006.3
20180419170208 48 190 2.0 7.0 0.00 0.00 0.00 78 1005.6
20180419165706 48 189 2.0 8.0 0.00 0.00 0.00 79 1005.4
20180419165207 48 188 2.0 8.0 0.00 0.00 0.00 80 1005.6
20180419164707 48 195 1.0 9.0 0.00 0.00 0.00 81 1005.6
20180419164207 47 152 1.0 12.0 0.00 0.01 0.00 82 1005.7
20180419163705 47 131 3.0 12.0 0.00 0.01 0.00 82 1005.7
20180419163207 47 182 3.0 12.0 0.00 0.01 0.00 81 1006.2
20180419162704 47 238 3.0 10.0 0.00 0.01 0.00 82 1006.6
20180419162208 47 198 3.0 10.0 0.00 0.01 0.00 81 1006.7
20180419161706 47 223 4.0 10.0 0.00 0.01 0.00 81 1006.5
20180419161205 47 253 4.0 10.0 0.00 0.01 0.00 81 1006.5
20180419160705 47 199 3.0 12.0 0.00 0.01 0.00 81 1006.3
20180419160208 47 184 4.0 12.0 0.00 0.01 0.00 80 1006.5
20180419155707 48 183 4.0 12.0 0.00 0.01 0.00 80 1006.5
20180419155207 48 196 4.0 11.0 0.00 0.01 0.00 80 1006.4
20180419154705 48 174 3.0 12.0 0.00 0.01 0.00 79 1006.2
20180419154205 48 182 3.0 13.0 0.00 0.01 0.00 78 1006.3
20180419153706 48 173 5.0 13.0 0.00 0.01 0.00 77 1006.3
20180419153207 49 153 4.0 16.0 0.00 0.01 0.00 76 1006.5
20180419152706 49 167 4.0 16.0 0.00 0.01 0.00 75 1006.7
20180419152206 49 142 5.0 12.0 0.00 0.01 0.00 74 1006.6
20180419151710 49 220 4.0 11.0 0.00 0.01 0.00 74 1006.6
20180419151205 49 163 4.0 13.0 0.00 0.01 0.00 73 1006.6
20180419150706 49 183 4.0 13.0 0.00 0.01 0.00 73 1006.5
20180419150205 50 171 4.0 11.0 0.00 0.01 0.00 72 1006.4
20180419145707 51 151 4.0 11.0 0.00 0.01 0.00 71 1006.5
20180419145205 51 198 5.0 14.0 0.00 0.01 0.00 65 1006.6
20180419144707 50 211 6.0 14.0 0.00 0.01 0.00 65 1006.5
20180419144207 50 206 7.0 14.0 0.00 0.01 0.00 64 1006.5
20180419143705 51 284 5.0 10.0 0.00 0.01 0.00 64 1006.4
20180419143206 51 219 4.0 10.0 0.00 0.01 0.00 64 1006.4
20180419142707 51 202 5.0 10.0 0.00 0.01 0.00 65 1006.4
20180419142205 50 228 5.0 13.0 0.00 0.01 0.00 66 1006.6
20180419141706 50 215 6.0 13.0 0.00 0.01 0.00 66 1006.7
20180419141205 49 210 7.0 17.0 0.00 0.01 0.00 65 1006.7
20180419140707 49 232 7.0 19.0 0.00 0.01 0.00 67 1006.8
20180419140214 49 219 9.0 19.0 0.00 0.01 0.00 68 1006.9
20180419135705 49 229 8.0 19.0 0.00 0.01 0.00 68 1006.9
20180419135205 49 281 6.0 15.0 0.00 0.01 0.00 70 1006.9
20180419134706 49 229 9.0 15.0 0.00 0.01 0.00 70 1006.8
20180419134207 49 217 9.0 15.0 0.00 0.01 0.00 70 1006.7
20180419133705 49 226 6.0 14.0 0.00 0.01 0.00 70 1006.5
20180419133209 49 256 6.0 16.0 0.00 0.01 0.00 72 1006.6
20180419132707 48 261 8.0 16.0 0.00 0.01 0.00 71 1006.5
20180419132207 48 205 8.0 16.0 0.00 0.01 0.00 73 1006.5
20180419131708 48 215 7.0 15.0 0.00 0.01 0.00 73 1006.6
20180419131207 48 226 7.0 13.0 0.00 0.01 0.00 75 1006.5
20180419130707 47 254 7.0 13.0 0.00 0.01 0.00 77 1006.6
20180419130207 47 218 6.0 13.0 0.00 0.02 0.00 78 1006.6
20180419125707 47 233 7.0 13.0 0.00 0.02 0.00 80 1006.6
20180419125210 46 254 7.0 13.0 0.00 0.02 0.00 81 1006.5
20180419124707 46 254 6.0 17.0 0.00 0.02 0.00 81 1006.4
20180419124205 46 223 5.0 17.0 0.00 0.02 0.00 82 1006.5
20180419123706 46 261 6.0 17.0 0.00 0.02 0.00 83 1006.4
20180419123208 45 221 6.0 13.0 0.00 0.02 0.00 82 1006.5
20180419122706 45 247 6.0 13.0 0.00 0.02 0.00 84 1006.5
20180419122205 45 257 6.0 13.0 0.00 0.02 0.00 87 1006.5
20180419121707 44 212 5.0 11.0 0.00 0.02 0.00 88 1006.5
20180419121207 44 215 5.0 10.0 0.00 0.02 0.00 90 1006.6
20180419120705 43 203 5.0 10.0 0.00 0.02 0.00 91 1006.6
20180419120206 43 201 3.0 8.0 0.00 0.02 0.00 92 1006.4
20180419115706 43 207 3.0 7.0 0.00 0.02 0.00 93 1006.3
20180419115205 42 216 3.0 7.0 0.00 0.02 0.00 94 1006.2
20180419114705 42 198 2.0 6.0 0.00 0.02 0.00 95 1006.2
20180419114205 42 198 2.0 6.0 0.00 0.02 0.00 96 1006.2
20180419113705 41 197 2.0 6.0 0.00 0.02 0.00 96 1006.2
20180419113205 41 197 2.0 6.0 0.00 0.02 0.00 96 1006.1
20180419112705 41 197 1.0 6.0 0.00 0.02 0.00 96 1006.0
20180419112207 40 196 1.0 4.0 0.00 0.02 0.00 97 1006.0
20180419111706 40 198 1.0 4.0 0.00 0.02 0.00 97 1006.0
20180419111207 40 198 1.0 3.0 0.00 0.02 0.00 97 1005.9
20180419110707 40 198 1.0 3.0 0.00 0.02 0.00 96 1005.8
20180419110207 40 198 1.0 3.0 0.00 0.02 0.00 96 1005.8
20180419105705 40 198 0.0 3.0 0.00 0.02 0.00 96 1005.7
20180419105215 39 198 0.0 4.0 0.00 0.02 0.00 96 1005.7
20180419104707 39 198 0.0 4.0 0.00 0.02 0.00 96 1005.5
20180419104207 39 198 0.0 5.0 0.00 0.02 0.00 96 1005.6
20180419103707 39 198 0.0 5.0 0.00 0.02 0.00 96 1005.6
20180419103207 39 198 1.0 6.0 0.00 0.02 0.00 96 1005.6
20180419102705 39 198 1.0 6.0 0.00 0.02 0.00 96 1005.6
20180419102207 39 198 1.0 5.0 0.00 0.02 0.00 96 1005.5
20180419101709 39 198 1.0 5.0 0.00 0.02 0.00 96 1005.5
20180419101208 39 204 1.0 5.0 0.00 0.02 0.00 96 1005.5
20180419100706 39 206 1.0 5.0 0.00 0.02 0.00 96 1005.5
20180419100209 39 206 1.0 7.0 0.00 0.02 0.00 96 1005.6
20180419095708 39 206 1.0 7.0 0.00 0.02 0.00 96 1005.6
20180419095209 39 206 1.0 7.0 0.00 0.02 0.00 96 1005.5
20180419094706 39 207 1.0 7.0 0.00 0.02 0.00 96 1005.5
20180419094209 39 207 1.0 3.0 0.00 0.02 0.00 96 1005.5
20180419093706 39 208 1.0 3.0 0.00 0.02 0.00 96 1005.5
20180419093205 39 208 1.0 4.0 0.00 0.02 0.00 95 1005.5
20180419092705 39 208 1.0 4.0 0.00 0.02 0.00 95 1005.3
20180419092207 39 208 1.0 4.0 0.00 0.02 0.00 95 1005.3
20180419091707 39 207 1.0 6.0 0.00 0.02 0.00 95 1005.4
20180419091206 39 207 0.0 6.0 0.00 0.02 0.00 95 1005.2
20180419090706 39 207 1.0 6.0 0.00 0.02 0.00 95 1005.2
20180419090206 39 207 2.0 7.0 0.00 0.02 0.00 95 1005.2
20180419085706 39 211 2.0 7.0 0.00 0.02 0.00 96 1005.3
20180419085206 39 210 3.0 6.0 0.00 0.02 0.00 96 1005.4
20180419084707 39 210 3.0 6.0 0.00 0.02 0.00 97 1005.2
20180419084208 39 226 3.0 8.0 0.00 0.02 0.00 97 1005.3
20180419083706 38 213 2.0 8.0 0.00 0.02 0.00 97 1005.2
20180419083206 38 225 2.0 6.0 0.00 0.02 0.00 97 1005.1
20180419082707 38 223 2.0 6.0 0.00 0.02 0.00 98 1005.3
20180419082207 38 236 3.0 5.0 0.00 0.02 0.00 98 1005.1
20180419081707 38 251 3.0 5.0 0.00 0.02 0.00 98 1005.1
20180419081207 38 242 2.0 5.0 0.00 0.02 0.00 98 1005.1
20180419080707 37 252 2.0 5.0 0.00 0.02 0.00 98 1005.0
20180419080207 37 252 2.0 5.0 0.00 0.02 0.00 98 1005.0
20180419075706 37 252 1.0 5.0 0.00 0.02 0.00 98 1005.0
20180419075207 37 253 1.0 3.0 0.00 0.02 0.00 98 1005.0
20180419074706 36 253 1.0 3.0 0.00 0.02 0.00 98 1004.9
20180419074205 36 253 0.0 2.0 0.00 0.02 0.00 97 1004.9
20180419073706 36 253 0.0 3.0 0.00 0.02 0.00 98 1004.8
20180419073206 36 253 1.0 3.0 0.00 0.02 0.00 98 1004.7
20180419072706 36 253 1.0 5.0 0.00 0.02 0.00 98 1004.7
20180419072205 36 253 2.0 7.0 0.00 0.02 0.00 98 1004.6
20180419071706 36 253 3.0 8.0 0.00 0.02 0.00 98 1004.6
20180419071205 36 254 3.0 8.0 0.00 0.02 0.00 97 1004.6
20180419070707 36 252 3.0 8.0 0.00 0.02 0.00 97 1004.5
20180419070206 36 250 3.0 8.0 0.00 0.02 0.00 97 1004.6
20180419065705 36 252 3.0 8.0 0.00 0.02 0.00 97 1004.6
20180419065205 36 247 3.0 8.0 0.00 0.02 0.00 97 1004.5
20180419064707 36 241 3.0 6.0 0.00 0.02 0.00 97 1004.6
20180419064207 36 239 3.0 6.0 0.00 0.02 0.00 97 1004.5
20180419063707 36 238 2.0 6.0 0.00 0.02 0.00 97 1004.4
20180419063206 36 225 1.0 4.0 0.00 0.02 0.00 97 1004.4
20180419062705 36 218 0.0 5.0 0.00 0.02 0.00 96 1004.4
20180419062206 37 217 1.0 5.0 0.00 0.02 0.00 96 1004.4
20180419061706 37 217 1.0 4.0 0.00 0.02 0.00 97 1004.4
20180419061206 37 219 2.0 5.0 0.00 0.02 0.00 96 1004.3
20180419060706 37 218 3.0 5.0 0.00 0.02 0.00 97 1004.3
20180419060205 37 218 3.0 5.0 0.00 0.02 0.00 97 1004.5
20180419055704 37 213 2.0 8.0 0.00 0.02 0.00 97 1004.4
20180419055207 37 207 2.0 8.0 0.00 0.02 0.00 96 1004.3
20180419054705 37 205 3.0 7.0 0.00 0.02 0.00 96 1004.4
20180419054207 37 209 2.0 5.0 0.00 0.02 0.00 96 1004.4
20180419053705 37 212 2.0 7.0 0.00 0.02 0.00 96 1004.4
20180419053206 37 213 3.0 7.0 0.00 0.02 0.00 96 1004.4
20180419052706 37 213 3.0 7.0 0.00 0.02 0.00 96 1004.4
20180419052205 38 225 3.0 5.0 0.00 0.02 0.00 95 1004.4
20180419051707 38 225 3.0 6.0 0.00 0.02 0.00 95 1004.5
20180419051207 38 227 3.0 8.0 0.00 0.02 0.00 95 1004.5
20180419050706 38 227 2.0 8.0 0.00 0.02 0.00 95 1004.4
20180419050207 38 207 2.0 8.0 0.00 0.02 0.00 95 1004.4
20180419045706 38 213 2.0 6.0 0.00 0.02 0.00 95 1004.6
20180419045206 38 238 3.0 8.0 0.00 0.02 0.00 94 1004.4
20180419044707 38 211 3.0 8.0 0.00 0.02 0.00 94 1004.5
20180419044205 38 211 4.0 10.0 0.00 0.02 0.00 94 1004.6
20180419043706 38 208 4.0 10.0 0.00 0.02 0.00 94 1004.7
20180419043206 38 249 4.0 10.0 0.00 0.02 0.00 94 1004.7
20180419042705 39 244 4.0 8.0 0.00 0.02 0.00 94 1004.6
20180419042206 39 231 5.0 8.0 0.00 0.02 0.00 93 1004.6
20180419041705 39 230 4.0 9.0 0.00 0.02 0.00 93 1004.5
20180419041205 39 209 4.0 11.0 0.00 0.02 0.00 93 1004.6
20180419040707 39 215 5.0 11.0 0.00 0.02 0.00 93 1004.4
20180419040207 39 251 6.0 10.0 0.00 0.02 0.00 93 1004.5
20180419035706 39 202 5.0 10.0 0.00 0.02 0.00 93 1004.5
20180419035206 39 217 4.0 12.0 0.00 0.02 0.00 93 1004.5
20180419034707 39 206 5.0 12.0 0.00 0.02 0.00 93 1004.5
20180419034207 39 229 6.0 10.0 0.00 0.02 0.00 93 1004.4
20180419033707 38 204 5.0 10.0 0.00 0.02 0.00 93 1004.3
20180419033206 38 213 5.0 10.0 0.00 0.02 0.00 93 1004.2
20180419032705 38 215 5.0 11.0 0.00 0.02 0.00 93 1004.2
20180419032207 38 205 5.0 11.0 0.00 0.02 0.00 93 1004.2
20180419031707 38 212 4.0 9.0 0.00 0.02 0.00 93 1004.2
20180419031207 38 197 4.0 9.0 0.00 0.02 0.00 93 1004.2
20180419030707 38 209 4.0 8.0 0.00 0.02 0.00 93 1004.2
20180419030207 37 211 3.0 12.0 0.00 0.02 0.02 93 1004.2
20180419025707 37 229 4.0 12.0 0.00 0.02 0.02 93 1004.1
20180419025205 37 207 5.0 12.0 0.00 0.02 0.02 92 1004.2
20180419024706 37 209 5.0 11.0 0.00 0.02 0.02 92 1004.3
20180419024206 37 215 5.0 11.0 0.00 0.02 0.02 92 1004.2
20180419023706 37 213 5.0 9.0 0.00 0.02 0.02 92 1004.2
20180419023207 37 214 5.0 9.0 0.00 0.02 0.02 92 1004.2
20180419022711 37 225 5.0 9.0 0.00 0.02 0.02 91 1004.2
20180419022205 37 213 4.0 9.0 0.00 0.02 0.02 91 1004.2
20180419021705 36 223 3.0 8.0 0.00 0.02 0.02 91 1004.1
20180419021206 37 204 4.0 8.0 0.00 0.02 0.02 91 1004.1
20180419020706 37 210 4.0 8.0 0.00 0.02 0.02 90 1004.0
20180419020208 37 231 3.0 7.0 0.00 0.02 0.02 90 1003.9
20180419015706 37 219 2.0 7.0 0.00 0.02 0.02 90 1003.9
20180419015206 37 198 2.0 7.0 0.00 0.02 0.02 89 1003.9
20180419014707 37 198 3.0 7.0 0.00 0.02 0.02 89 1003.8
20180419014213 37 219 3.0 8.0 0.00 0.02 0.02 89 1003.8
20180419013715 37 213 3.0 8.0 0.00 0.02 0.02 88 1003.7
20180419013206 37 209 2.0 8.0 0.00 0.02 0.02 88 1003.8
20180419012705 38 207 2.0 8.0 0.00 0.02 0.02 87 1003.8
20180419012206 38 205 3.0 6.0 0.00 0.02 0.02 87 1003.7
20180419011705 38 215 2.0 6.0 0.00 0.02 0.02 87 1003.7
20180419011205 38 219 2.0 8.0 0.00 0.02 0.02 87 1003.7
20180419010706 38 219 3.0 8.0 0.00 0.02 0.02 87 1003.7
20180419010207 38 219 4.0 8.0 0.00 0.02 0.02 87 1003.7
20180419005705 38 224 4.0 7.0 0.00 0.02 0.02 86 1003.7
20180419005205 38 211 3.0 6.0 0.00 0.02 0.02 86 1003.7
20180419004705 38 240 1.0 6.0 0.00 0.02 0.02 86 1003.6
20180419004205 38 242 2.0 6.0 0.00 0.02 0.02 86 1003.5
20180419003707 38 242 3.0 8.0 0.00 0.02 0.02 85 1003.4
20180419003205 38 238 3.0 8.0 0.00 0.02 0.02 85 1003.4
20180419002706 39 244 4.0 8.0 0.00 0.02 0.02 85 1003.3
20180419002207 39 249 3.0 8.0 0.00 0.02 0.02 85 1003.3
20180419001705 39 247 4.0 9.0 0.00 0.02 0.02 84 1003.3
20180419001206 39 246 4.0 9.0 0.00 0.02 0.02 84 1003.3
20180419000705 39 246 4.0 9.0 0.00 0.02 0.02 84 1003.2
20180419000205 39 248 3.0 7.0 0.00 0.02 0.02 84 1003.2
20180418235706 39 248 3.0 9.0 0.00 0.02 0.02 83 1003.0
20180418235206 39 254 3.0 9.0 0.00 0.02 0.02 84 1003.0
20180418234705 39 256 2.0 8.0 0.00 0.02 0.02 83 1002.9
20180418234206 40 229 2.0 7.0 0.00 0.02 0.02 82 1002.9
20180418233706 40 230 3.0 8.0 0.00 0.02 0.02 82 1002.8
20180418233206 40 246 3.0 11.0 0.00 0.02 0.02 81 1002.8
20180418232706 40 254 4.0 11.0 0.00 0.02 0.02 81 1002.7
20180418232207 40 264 5.0 11.0 0.00 0.02 0.02 81 1002.6
20180418231706 40 240 4.0 11.0 0.00 0.02 0.02 80 1002.7
20180418231207 40 249 3.0 10.0 0.00 0.02 0.02 81 1002.6
20180418230705 41 245 4.0 10.0 0.00 0.02 0.02 80 1002.4